TimeEDT,TemperatureF,Dew PointF,Humidity,Sea Level PressureIn,VisibilityMPH,Wind Direction,Wind SpeedMPH,Gust SpeedMPH,PrecipitationIn,Events,Conditions,WindDirDegrees,DateUTC
12:15 AM,57.2,51.8,82,29.97,-9999.0,NNW,5.8,-,N/A,,Clear,330,2013-09-03 04:15:00
12:35 AM,57.2,50.0,77,29.97,-9999.0,NNW,5.8,-,N/A,,Clear,330,2013-09-03 04:35:00
12:55 AM,57.2,50.0,77,29.97,-9999.0,North,4.6,-,N/A,,Mostly Cloudy,350,2013-09-03 04:55:00
1:15 AM,57.2,50.0,77,29.97,-9999.0,NNW,4.6,-,N/A,,Overcast,340,2013-09-03 05:15:00
1:35 AM,59.0,50.0,72,29.97,-9999.0,NW,5.8,-,N/A,,Overcast,320,2013-09-03 05:35:00
1:55 AM,59.0,50.0,72,29.97,-9999.0,NNW,5.8,-,N/A,,Overcast,340,2013-09-03 05:55:00
2:15 AM,59.0,46.4,63,29.98,-9999.0,NNW,8.1,-,N/A,,Overcast,340,2013-09-03 06:15:00
2:35 AM,59.0,46.4,63,29.97,-9999.0,North,8.1,17.3,N/A,,Overcast,350,2013-09-03 06:35:00
2:55 AM,59.0,46.4,63,29.97,-9999.0,North,13.8,19.6,N/A,,Overcast,360,2013-09-03 06:55:00
3:15 AM,59.0,46.4,63,29.97,-9999.0,North,6.9,-,N/A,,Overcast,360,2013-09-03 07:15:00
3:35 AM,55.4,46.4,72,29.98,-9999.0,North,4.6,-,N/A,,Mostly Cloudy,10,2013-09-03 07:35:00
3:55 AM,57.2,46.4,67,29.98,-9999.0,Calm,Calm,-,N/A,,Mostly Cloudy,0,2013-09-03 07:55:00
4:15 AM,59.0,48.2,67,29.99,-9999.0,Calm,Calm,-,N/A,,Overcast,0,2013-09-03 08:15:00
4:35 AM,59.0,46.4,63,30.00,-9999.0,NNW,3.5,-,N/A,,Overcast,340,2013-09-03 08:35:00
4:55 AM,59.0,46.4,63,29.99,-9999.0,NNE,6.9,-,N/A,,Overcast,20,2013-09-03 08:55:00
5:15 AM,59.0,46.4,63,29.99,-9999.0,North,6.9,-,N/A,,Overcast,350,2013-09-03 09:15:00
5:35 AM,59.0,46.4,63,30.00,-9999.0,NNW,8.1,-,N/A,,Overcast,340,2013-09-03 09:35:00
5:55 AM,59.0,46.4,63,30.00,-9999.0,North,6.9,-,N/A,,Overcast,360,2013-09-03 09:55:00
6:15 AM,59.0,44.6,59,30.00,-9999.0,North,5.8,-,N/A,,Overcast,350,2013-09-03 10:15:00
6:35 AM,59.0,46.4,63,30.01,-9999.0,NNW,4.6,-,N/A,,Overcast,340,2013-09-03 10:35:00
6:55 AM,59.0,46.4,63,30.02,-9999.0,Calm,Calm,-,N/A,,Overcast,0,2013-09-03 10:55:00
7:15 AM,59.0,46.4,63,30.03,-9999.0,NW,4.6,-,N/A,,Overcast,320,2013-09-03 11:15:00
7:35 AM,59.0,46.4,63,30.03,-9999.0,NNW,3.5,-,N/A,,Overcast,330,2013-09-03 11:35:00
7:55 AM,60.8,46.4,59,30.04,-9999.0,NW,3.5,-,N/A,,Overcast,310,2013-09-03 11:55:00
8:15 AM,60.8,46.4,59,30.04,-9999.0,NNW,5.8,-,N/A,,Overcast,340,2013-09-03 12:15:00
8:35 AM,60.8,48.2,63,30.05,-9999.0,NNW,8.1,-,N/A,,Overcast,330,2013-09-03 12:35:00
8:55 AM,60.8,50.0,68,30.05,-9999.0,NNW,6.9,-,N/A,,Overcast,340,2013-09-03 12:55:00
9:15 AM,60.8,48.2,63,30.05,-9999.0,North,8.1,-,N/A,,Overcast,350,2013-09-03 13:15:00
9:35 AM,62.6,48.2,59,30.05,-9999.0,NNW,10.4,-,N/A,,Scattered Clouds,340,2013-09-03 13:35:00
9:55 AM,64.4,50.0,59,30.06,-9999.0,NNW,9.2,-,N/A,,Clear,330,2013-09-03 13:55:00
10:15 AM,64.4,48.2,56,30.06,-9999.0,NNW,11.5,-,N/A,,Clear,340,2013-09-03 14:15:00
10:35 AM,64.4,50.0,59,30.06,-9999.0,North,8.1,-,N/A,,Clear,360,2013-09-03 14:35:00
10:55 AM,68.0,50.0,52,30.06,-9999.0,NW,8.1,-,N/A,,Clear,320,2013-09-03 14:55:00
11:15 AM,68.0,50.0,52,30.06,-9999.0,North,8.1,-,N/A,,Clear,360,2013-09-03 15:15:00
11:35 AM,68.0,50.0,52,30.06,-9999.0,NNW,10.4,-,N/A,,Clear,330,2013-09-03 15:35:00
11:55 AM,69.8,50.0,49,30.06,-9999.0,WNW,9.2,-,N/A,,Scattered Clouds,300,2013-09-03 15:55:00
12:15 PM,69.8,50.0,49,30.06,-9999.0,WNW,9.2,-,N/A,,Clear,300,2013-09-03 16:15:00
12:35 PM,71.6,50.0,46,30.06,-9999.0,NW,10.4,-,N/A,,Clear,310,2013-09-03 16:35:00
12:55 PM,71.6,50.0,46,30.06,-9999.0,WNW,8.1,-,N/A,,Scattered Clouds,290,2013-09-03 16:55:00
1:15 PM,73.4,50.0,44,30.06,-9999.0,North,8.1,-,N/A,,Scattered Clouds,350,2013-09-03 17:15:00
1:35 PM,71.6,50.0,46,30.06,-9999.0,NW,10.4,-,N/A,,Mostly Cloudy,310,2013-09-03 17:35:00
1:55 PM,73.4,50.0,44,30.05,-9999.0,NW,11.5,16.1,N/A,,Scattered Clouds,320,2013-09-03 17:55:00
2:15 PM,73.4,50.0,44,30.05,-9999.0,NW,12.7,18.4,N/A,,Scattered Clouds,310,2013-09-03 18:15:00
2:35 PM,75.2,50.0,41,30.05,-9999.0,NW,6.9,-,N/A,,Scattered Clouds,320,2013-09-03 18:35:00
2:55 PM,75.2,50.0,41,30.05,-9999.0,WNW,10.4,-,N/A,,Scattered Clouds,300,2013-09-03 18:55:00
3:15 PM,75.2,50.0,41,30.04,-9999.0,NNW,10.4,-,N/A,,Scattered Clouds,340,2013-09-03 19:15:00
3:35 PM,75.2,50.0,41,30.03,-9999.0,NW,4.6,-,N/A,,Scattered Clouds,310,2013-09-03 19:35:00
3:55 PM,77.0,50.0,39,30.02,-9999.0,WNW,5.8,-,N/A,,Scattered Clouds,290,2013-09-03 19:55:00
4:15 PM,77.0,50.0,39,30.02,-9999.0,North,6.9,20.7,N/A,,Scattered Clouds,350,2013-09-03 20:15:00
4:35 PM,75.2,50.0,41,30.02,-9999.0,WNW,6.9,-,N/A,,Scattered Clouds,290,2013-09-03 20:35:00
4:55 PM,77.0,50.0,39,30.02,-9999.0,NW,8.1,-,N/A,,Scattered Clouds,310,2013-09-03 20:55:00
5:15 PM,77.0,50.0,39,30.02,-9999.0,West,9.2,-,N/A,,Clear,280,2013-09-03 21:15:00
5:35 PM,77.0,48.2,36,30.02,-9999.0,West,4.6,-,N/A,,Clear,280,2013-09-03 21:35:00
5:55 PM,75.2,50.0,41,30.02,-9999.0,West,10.4,-,N/A,,Clear,280,2013-09-03 21:55:00
6:15 PM,75.2,46.4,36,30.02,-9999.0,NW,5.8,-,N/A,,Clear,310,2013-09-03 22:15:00
6:35 PM,75.2,50.0,41,30.02,-9999.0,NW,6.9,-,N/A,,Clear,320,2013-09-03 22:35:00
6:55 PM,73.4,50.0,44,30.02,-9999.0,NW,4.6,-,N/A,,Clear,320,2013-09-03 22:55:00
7:15 PM,73.4,48.2,41,30.02,-9999.0,NW,4.6,-,N/A,,Clear,320,2013-09-03 23:15:00
7:35 PM,71.6,50.0,46,30.03,-9999.0,NW,3.5,-,N/A,,Clear,310,2013-09-03 23:35:00
7:55 PM,69.8,50.0,49,30.03,-9999.0,Calm,Calm,-,N/A,,Clear,0,2013-09-03 23:55:00
8:15 PM,68.0,51.8,56,30.03,-9999.0,Calm,Calm,-,N/A,,Clear,0,2013-09-04 00:15:00
8:35 PM,66.2,51.8,60,30.04,-9999.0,Calm,Calm,-,N/A,,Clear,0,2013-09-04 00:35:00
8:55 PM,64.4,51.8,64,30.04,-9999.0,Calm,Calm,-,N/A,,Clear,0,2013-09-04 00:55:00
9:15 PM,64.4,51.8,64,30.05,-9999.0,Calm,Calm,-,N/A,,Clear,0,2013-09-04 01:15:00
9:35 PM,62.6,53.6,72,30.05,-9999.0,Calm,Calm,-,N/A,,Clear,0,2013-09-04 01:35:00
9:55 PM,62.6,53.6,72,30.05,-9999.0,Calm,Calm,-,N/A,,Clear,0,2013-09-04 01:55:00
10:15 PM,62.6,53.6,72,30.06,-9999.0,Calm,Calm,-,N/A,,Clear,0,2013-09-04 02:15:00
10:35 PM,60.8,53.6,77,30.06,-9999.0,Calm,Calm,-,N/A,,Clear,0,2013-09-04 02:35:00
10:55 PM,60.8,53.6,77,30.06,-9999.0,Calm,Calm,-,N/A,,Clear,0,2013-09-04 02:55:00
11:15 PM,60.8,51.8,72,30.07,-9999.0,Calm,Calm,-,N/A,,Clear,0,2013-09-04 03:15:00
11:35 PM,60.8,53.6,77,30.06,-9999.0,Calm,Calm,-,N/A,,Clear,0,2013-09-04 03:35:00
11:55 PM,59.0,53.6,82,30.06,-9999.0,Calm,Calm,-,N/A,,Clear,0,2013-09-04 03:55:00